Location: Unspecified
(0.0000°N, 0.0000°E)
Time: 20:35:21
(UTC+00:00)

Altair - All Passes

Search period start: 16 September 2019 00:00
Search period end: 26 September 2019 00:00
Orbit: 1501 x 1683 km, 47.2° (Epoch: 15 September)

Date Brightness Start Highest point End Pass type
(mag) Time Alt. Az. Time Alt. Az. Time Alt. Az.
16 Sep - 03:22:44 10° N 03:29:20 21° NE 03:35:46 10° E visible
16 Sep - 05:24:39 10° NW 05:34:06 79° SW 05:43:19 10° SE visible
16 Sep - 07:34:50 10° WSW 07:38:59 14° SW 07:43:06 10° SSW daylight
16 Sep - 16:09:24 10° SSW 16:18:39 47° SE 16:28:07 10° ENE daylight
16 Sep - 18:14:17 10° WSW 18:23:19 40° NW 18:32:33 10° NNE visible
17 Sep - 02:58:06 10° N 03:04:04 18° NE 03:09:55 10° E visible
17 Sep - 04:59:27 10° NW 05:08:58 87° SW 05:18:13 10° SE visible
17 Sep - 07:08:35 10° W 07:13:43 16° SW 07:18:50 10° SSW daylight
17 Sep - 15:44:27 10° SSW 15:53:27 41° SE 16:02:39 10° ENE daylight
17 Sep - 17:48:52 10° WSW 17:58:06 44° NW 18:07:34 10° NNE daylight
18 Sep - 02:33:35 10° N 02:38:48 16° NE 02:43:55 10° ENE visible
18 Sep - 04:34:16 10° NW 04:43:49 84° NE 04:53:04 10° SE visible
18 Sep - 06:42:34 10° W 06:48:29 18° SW 06:54:23 10° S daylight
18 Sep - 15:19:33 10° SSW 15:28:15 37° SE 15:37:10 10° ENE daylight
18 Sep - 17:23:30 10° WSW 17:32:53 50° NW 17:42:33 10° NNE daylight
19 Sep - 02:09:17 10° NNE 02:13:31 13° NE 02:17:41 10° ENE visible
19 Sep - 04:09:07 10° NW 04:18:40 76° NE 04:27:54 10° SE visible
19 Sep - 06:16:42 10° W 06:23:16 21° SW 06:29:48 10° S daylight
19 Sep - 14:54:41 10° S 15:03:03 33° SE 15:11:35 10° ENE daylight
19 Sep - 16:58:10 10° SW 17:07:41 55° NW 17:17:30 10° NNE daylight
20 Sep - 01:45:22 10° NNE 01:48:13 11° NE 01:51:02 10° ENE visible
20 Sep - 03:44:00 10° NNW 03:53:31 68° NE 04:02:43 10° SE visible
20 Sep - 05:50:56 10° W 05:58:04 24° SW 06:05:08 10° S daylight
20 Sep - 14:29:52 10° S 14:37:50 29° SE 14:45:58 10° ENE daylight
20 Sep - 16:32:52 10° SW 16:42:28 62° NW 16:52:24 10° NNE daylight
20 Sep - 18:46:09 10° NW 18:48:02 11° NW 18:49:56 10° NNW visible
21 Sep - 03:18:54 10° NNW 03:28:22 61° NE 03:37:29 10° SE visible
21 Sep - 05:25:15 10° WNW 05:32:52 28° SW 05:40:23 10° S visible
21 Sep - 14:05:07 10° S 14:12:38 25° SE 14:20:17 10° E daylight
21 Sep - 16:07:37 10° SW 16:17:17 69° NW 16:27:18 10° NNE daylight
21 Sep - 18:18:54 10° WNW 18:22:42 13° NW 18:26:31 10° NNW visible
22 Sep - 02:53:50 10° NNW 03:03:12 54° NE 03:12:12 10° SE visible
22 Sep - 04:59:39 10° WNW 05:07:41 31° SW 05:15:35 10° S visible
22 Sep - 13:40:25 10° S 13:47:24 22° SE 13:54:29 10° E daylight
22 Sep - 15:42:24 10° SW 15:52:06 77° NW 16:02:09 10° NE daylight
22 Sep - 17:52:26 10° WNW 17:57:21 15° NW 18:02:22 10° NNW daylight
23 Sep - 02:28:48 10° NNW 02:38:01 48° NE 02:46:54 10° ESE visible
23 Sep - 04:34:07 10° WNW 04:42:31 35° SW 04:50:45 10° SSE visible
23 Sep - 13:15:49 10° S 13:22:09 19° SE 13:28:36 10° E daylight
23 Sep - 15:17:13 10° SW 15:26:56 85° NW 15:36:59 10° NE daylight
23 Sep - 17:26:16 10° W 17:32:03 17° NW 17:37:57 10° N daylight
24 Sep - 02:03:47 10° NNW 02:12:50 43° NE 02:21:33 10° ESE visible
24 Sep - 04:08:37 10° WNW 04:17:21 40° SW 04:25:52 10° SSE visible
24 Sep - 12:51:19 10° S 12:56:54 17° SE 13:02:34 10° E daylight
24 Sep - 14:52:05 10° SW 15:01:45 87° SE 15:11:46 10° NE daylight
24 Sep - 17:00:18 10° W 17:06:45 19° NW 17:13:22 10° N daylight
25 Sep - 01:38:49 10° NNW 01:47:39 38° NE 01:56:09 10° ESE visible
25 Sep - 03:43:11 10° WNW 03:52:11 45° SW 04:00:57 10° SSE visible
25 Sep - 12:27:00 10° SSE 12:31:38 14° SE 12:36:20 10° ESE daylight
25 Sep - 14:26:58 10° SW 14:36:35 79° SE 14:46:32 10° NE daylight
25 Sep - 16:34:28 10° W 16:41:29 22° NW 16:48:41 10° N daylight
